AirNav   Everest Fuels
 
 579 users online  

II84 Hilakos Airport
Mount Vernon, Indiana, USA

GOING TO MOUNT VERNON?


FAA INFORMATION EFFECTIVE 21 MAY 2020

Location

FAA Identifier: II84
Lat/Long: 37-55-55.1500N 087-46-17.0800W
37-55.919167N 087-46.284667W
37.9319861,-87.7714111
(estimated)
Elevation: 381 ft. / 116 m (estimated)
Variation: 00W (1990)
From city: 7 miles E of MOUNT VERNON, IN
Time zone: UTC -5 (UTC -6 during Standard Time)
Zip code: 47620

Airport Operations

Airport use: Private use, PERSONAL USE.
Activation date: 12/1993
Control tower: no
ARTCC: INDIANAPOLIS CENTER
FSS: TERRE HAUTE FLIGHT SERVICE STATION
Attendance: UNATNDD
Segmented circle: no

Airport Communications

WX AWOS-3PT at EHR (8 nm SE): 118.85 (270-826-0511)
WX ASOS at EVV (13 nm NE): 120.2 (812-436-4681)
WX AWOS-3 at CUL (19 nm NW): 118.425 (618-382-3760)

Nearby radio navigation aids

VOR radial/distance  VOR name  Freq  Var
PXV at fieldPOCKET CITY VORTAC113.3003E
OWBr296/30.8OWENSBORO VOR/DME108.6004W
SAMr153/36.4SAMSVILLE VOR/DME116.6003E

Airport Services

Runway Information

Runway 9/27

Dimensions: 1400 x 40 ft. / 427 x 12 m
Surface: turf
RUNWAY 9  RUNWAY 27
Traffic pattern: leftleft

Airport Ownership and Management from official FAA records

Ownership: Privately-owned
Owner: WILLIAM HILAKOS
6700 S. DAVIS RD
MT. VERNON, IN 47620
Phone 812-449-3236
Manager: WILLIAM HILAKOS
6700 S. DAVIS RD
MT. VERNON, IN 47620
Phone 812-449-3236

Airport Operational Statistics

Aircraft based on the field: 1
Single engine airplanes: 1
    

Additional Remarks

FOR CD CTC EVANSVILLE APCH AT 812-436-4690, WHEN APCH CLSD CTC INDIANAPOLIS ARTCC AT 317-247-2411.

Instrument Procedures

There are no published instrument procedures at II84.

Some nearby airports with instrument procedures:

KEHR - Henderson City-County Airport (8 nm SE)
KEVV - Evansville Regional Airport (13 nm NE)
KCUL - Carmi Municipal Airport (19 nm NW)
KTWT - Sturgis Municipal Airport (25 nm S)
KOWB - Owensboro-Daviess County Regional Airport (31 nm E)
 
Loc | Ops | Rwys | IFR | FBO | Links
Com | Nav | Svcs | Stats | Notes
Area around II84 (Hilakos Airport)
 
Road maps at: MapQuest Bing Google
 
Aerial photo
No photo
 
Sectional chart

 
Airport distance calculator
Flying to Hilakos Airport? Find the distance to fly.

From to II84

Sunrise and sunset
Times for 27-May-2020
 Local
(UTC-5)
 Zulu
(UTC)
Morning civil twilight05:0310:03
Sunrise05:3310:33
Sunset20:0401:04
Evening civil twilight20:3401:34

Current date and time
Zulu (UTC)  27-May-2020 10:50:24
Local (UTC-5)  27-May-2020 05:50:24
 
METAR
KEHR 
9nm SE 
270956Z AUTO 12004KT 10SM BKN044 OVC060 21/19 A2994 RMK AO2 SLP133 T02060194
KEVV 
14nm NE 
270954Z AUTO 10004KT 10SM BKN047 21/18 A2994 RMK AO2 SLP134 T02060178 $
KCUL 
19nm NW 
271037Z AUTO 36004KT 7SM SCT013 BKN019 OVC038 21/21 A2993 RMK AO2
TAF
KEVV 
14nm NE 
270520Z 2706/2806 VRB03KT P6SM BKN100 FM271400 14009KT P6SM VCSH BKN030 FM271600 15010KT P6SM VCSH OVC009 FM271800 15009KT 5SM SHRA OVC011 FM280100 VRB04KT P6SM BKN027
NOTAMs
Click for the latest NOTAMs
NOTAMs are issued by the DoD/FAA and will open in a separate window not controlled by AirNav.

 

 
 

Would you like to see your business listed on this page?

 If your business provides an interesting product or service to pilots, flight crews, aircraft, or users of the Hilakos Airport, you should consider listing it here.  To start the listing process, click on the button below
 
Add a business
 

Other Pages about Hilakos Airport

Update a link
 
Copyright © AirNav, LLC. All rights reserved. Privacy Policy  Contact